DW9408 Weather Reports


Display with metric or nautical units.
time (UTC)temp
F
wind
direction
speed
MPH
gust
MPH
rain 1hr
in
rain 24hr
in
rain mn
in
humidity
%
barometer
mb
20260904174026 93 246 0.0 1.0 0.00 0.00 0.00 66 1016.5
20260904173521 93 246 0.0 1.0 0.00 0.00 0.00 67 1016.5
20260904173015 92 246 0.0 2.0 0.00 0.00 0.00 72 1016.6
20260904172508 92 246 0.0 2.0 0.00 0.00 0.00 68 1016.6
20260904172002 92 246 0.0 2.0 0.00 0.00 0.00 70 1016.7
20260904171456 92 243 0.0 0.0 0.00 0.00 0.00 70 1016.7
20260904170951 92 243 0.0 0.0 0.00 0.00 0.00 68 1016.8
20260904170445 91 243 0.0 0.0 0.00 0.00 0.00 72 1016.9
20260904165939 91 243 0.0 0.0 0.00 0.00 0.00 71 1016.9
20260904165433 90 243 0.0 1.0 0.00 0.00 0.00 70 1016.9
20260904164927 90 243 0.0 1.0 0.00 0.00 0.00 72 1017.0
20260904164659 90 243 0.0 1.0 0.00 0.00 0.00 77 1017.0
20260904163914 90 243 0.0 0.0 0.00 0.00 0.00 74 1017.0
20260904163410 90 243 0.0 1.0 0.00 0.00 0.00 76 1017.1
20260904162359 89 243 0.0 4.0 0.00 0.00 0.00 75 1017.3
20260904161850 89 245 0.0 0.0 0.00 0.00 0.00 76 1017.3
20260904161346 89 240 0.0 0.0 0.00 0.00 0.00 78 1017.3
20260904160839 88 229 0.0 2.0 0.00 0.00 0.00 77 1017.3
20260904160332 88 229 0.0 2.0 0.00 0.00 0.00 77 1017.4
20260904160057 88 46 0.0 0.0 0.00 0.00 0.00 77 1017.5
20260904155321 88 46 0.0 0.0 0.00 0.00 0.00 76 1017.5
20260904155048 88 45 0.0 0.0 0.00 0.00 0.00 76 1017.5
20260904154318 88 53 0.0 0.0 0.00 0.00 0.00 78 1017.4
20260904153818 87 28 0.0 0.0 0.00 0.00 0.00 76 1017.5
20260904153317 87 28 0.0 0.0 0.00 0.00 0.00 77 1017.5
20260904152817 87 28 0.0 0.0 0.00 0.00 0.00 77 1017.5
20260904152315 87 28 0.0 0.0 0.00 0.00 0.00 78 1017.5
20260904151815 87 325 0.0 0.0 0.00 0.00 0.00 78 1017.4
20260904151316 87 325 0.0 0.0 0.00 0.00 0.00 77 1017.5
20260904150814 86 325 0.0 0.0 0.00 0.00 0.00 78 1017.5
20260904150045 85 325 0.0 3.0 0.00 0.00 0.00 84 1017.4
20260904145313 85 325 0.0 3.0 0.00 0.00 0.00 83 1017.4
20260904144819 84 286 0.0 0.0 0.00 0.00 0.00 84 1017.4
20260904144312 84 302 0.0 0.0 0.00 0.00 0.00 84 1017.5
20260904143308 83 355 0.0 0.0 0.00 0.00 0.00 84 1017.4
20260904142808 83 314 0.0 0.0 0.00 0.00 0.00 84 1017.4
20260904142308 83 314 0.0 0.0 0.00 0.00 0.00 85 1017.4
20260904141802 82 313 0.0 0.0 0.00 0.00 0.00 85 1017.4
20260904141256 82 313 0.0 0.0 0.00 0.00 0.00 88 1017.4
20260904140750 81 313 0.0 0.0 0.00 0.00 0.00 87 1017.4
20260904140244 81 313 0.0 0.0 0.00 0.00 0.00 88 1017.4
20260904135737 80 314 0.0 0.0 0.00 0.00 0.00 89 1017.5
20260904135232 80 314 0.0 0.0 0.00 0.00 0.00 91 1017.4
20260904134726 79 314 0.0 0.0 0.00 0.00 0.00 93 1017.3
20260904134220 79 314 0.0 0.0 0.00 0.00 0.00 95 1017.4
20260904133714 78 314 0.0 0.0 0.00 0.00 0.00 95 1017.5
20260904133207 77 314 0.0 0.0 0.00 0.00 0.00 96 1017.5
20260904132704 77 314 0.0 0.0 0.00 0.00 0.00 98 1017.5
20260904132156 76 314 0.0 0.0 0.00 0.00 0.00 99 1017.5
20260904131655 76 314 0.0 0.0 0.00 0.00 0.00 100 1017.5
20260904131155 76 314 0.0 0.0 0.00 0.00 0.00 100 1017.4
20260904130927 75 314 0.0 0.0 0.00 0.00 0.00 100 1017.4
20260904130156 75 314 0.0 0.0 0.00 0.00 0.00 100 1017.4
20260904125654 75 314 0.0 0.0 0.00 0.00 0.00 100 1017.4
20260904125156 75 314 0.0 0.0 0.00 0.00 0.00 100 1017.4
20260904124652 74 314 0.0 0.0 0.00 0.00 0.00 100 1017.4
20260904124151 73 314 0.0 0.0 0.00 0.00 0.00 100 1017.5
20260904123651 73 314 0.0 0.0 0.00 0.00 0.00 100 1017.5
20260904123152 72 314 0.0 0.0 0.00 0.00 0.00 100 1017.5
20260904122653 72 314 0.0 0.0 0.00 0.00 0.00 100 1017.5
20260904122151 71 314 0.0 0.0 0.00 0.00 0.00 100 1017.5
20260904121650 70 314 0.0 0.0 0.00 0.00 0.00 100 1017.4
20260904121151 70 314 0.0 0.0 0.00 0.00 0.00 100 1017.4
20260904120650 70 314 0.0 0.0 0.00 0.00 0.00 100 1017.4
20260904120150 70 314 0.0 0.0 0.00 0.00 0.00 100 1017.3
20260904115648 69 314 0.0 0.0 0.00 0.00 0.00 100 1017.3
20260904115149 69 314 0.0 0.0 0.00 0.00 0.00 100 1017.2
20260904114919 69 314 0.0 0.0 0.00 0.00 0.00 100 1017.1
20260904114149 69 314 0.0 0.0 0.00 0.00 0.00 100 1017.1
20260904113649 69 314 0.0 0.0 0.00 0.00 0.00 100 1017.1
20260904113423 69 314 0.0 0.0 0.00 0.00 0.00 100 1017.0
20260904112648 69 314 0.0 0.0 0.00 0.00 0.00 100 1017.0
20260904112150 69 314 0.0 0.0 0.00 0.00 0.00 100 1017.0
20260904111650 69 314 0.0 0.0 0.00 0.00 0.00 100 1017.0
20260904111148 69 314 0.0 0.0 0.00 0.00 0.00 100 1016.9
20260904110648 69 314 0.0 0.0 0.00 0.00 0.00 100 1016.8
20260904110150 69 314 0.0 0.0 0.00 0.00 0.00 100 1016.8
20260904105650 69 314 0.0 0.0 0.00 0.00 0.00 100 1016.7
20260904105415 70 314 0.0 0.0 0.00 0.00 0.00 100 1016.7
20260904104638 70 314 0.0 0.0 0.00 0.00 0.00 100 1016.6
20260904104132 70 314 0.0 0.0 0.00 0.00 0.00 100 1016.5
20260904103626 70 314 0.0 0.0 0.00 0.00 0.00 100 1016.5
20260904103120 70 314 0.0 0.0 0.00 0.00 0.00 100 1016.6
20260904102614 70 314 0.0 0.0 0.00 0.00 0.00 100 1016.7
20260904102108 71 314 0.0 0.0 0.00 0.00 0.00 100 1016.6
20260904101604 71 314 0.0 0.0 0.00 0.00 0.00 100 1016.5
20260904101329 70 314 0.0 0.0 0.00 0.00 0.00 100 1016.5
20260904100559 70 314 0.0 0.0 0.00 0.00 0.00 100 1016.6
20260904100044 71 314 0.0 0.0 0.00 0.00 0.00 100 1016.6
20260904095541 71 314 0.0 0.0 0.00 0.00 0.00 100 1016.5
20260904095032 71 314 0.0 0.0 0.00 0.00 0.00 100 1016.4
20260904094527 71 314 0.0 0.0 0.00 0.00 0.00 100 1016.4
20260904094021 71 314 0.0 0.0 0.00 0.00 0.00 100 1016.5
20260904093746 71 314 0.0 0.0 0.00 0.00 0.00 100 1016.5
20260904093009 71 314 0.0 0.0 0.00 0.00 0.00 100 1016.5
20260904092502 71 314 0.0 0.0 0.00 0.00 0.00 100 1016.4
20260904092228 71 314 0.0 0.0 0.00 0.00 0.00 100 1016.4
20260904091501 71 314 0.0 0.0 0.00 0.00 0.00 100 1016.4
20260904090957 71 314 0.0 0.0 0.00 0.00 0.00 100 1016.4
20260904090457 71 314 0.0 0.0 0.00 0.00 0.00 100 1016.5
20260904085948 71 314 0.0 0.0 0.00 0.00 0.00 100 1016.4
20260904085438 71 314 0.0 0.0 0.00 0.00 0.00 100 1016.4
20260904084936 71 314 0.0 0.0 0.00 0.00 0.00 100 1016.4
20260904084432 71 314 0.0 0.0 0.00 0.00 0.00 100 1016.3
20260904083922 71 314 0.0 0.0 0.00 0.00 0.00 100 1016.3
20260904083418 71 314 0.0 0.0 0.00 0.00 0.00 100 1016.3
20260904083157 72 314 0.0 0.0 0.00 0.00 0.00 100 1016.3
20260904082652 72 314 0.0 0.0 0.00 0.00 0.00 100 1016.3
20260904082409 72 314 0.0 0.0 0.00 0.00 0.00 100 1016.3
20260904081859 72 314 0.0 0.0 0.00 0.00 0.00 100 1016.3
20260904081343 72 314 0.0 0.0 0.00 0.00 0.00 100 1016.3
20260904080836 72 314 0.0 0.0 0.00 0.00 0.00 100 1016.3
20260904080326 72 314 0.0 0.0 0.00 0.00 0.00 100 1016.2
20260904075820 72 314 0.0 0.0 0.00 0.00 0.00 100 1016.1
20260904075314 72 314 0.0 0.0 0.00 0.00 0.00 100 1016.2
20260904074808 72 314 0.0 0.0 0.00 0.00 0.00 100 1016.1
20260904074302 72 314 0.0 0.0 0.00 0.00 0.00 100 1016.2
20260904073756 72 314 0.0 0.0 0.00 0.00 0.00 100 1016.1
20260904073250 72 314 0.0 0.0 0.00 0.00 0.00 100 1016.1
20260904072744 72 314 0.0 0.0 0.00 0.00 0.00 100 1016.1
20260904072247 72 314 0.0 0.0 0.00 0.00 0.00 100 1016.1
20260904071748 72 314 0.0 0.0 0.00 0.00 0.00 100 1016.1
20260904071236 73 314 0.0 0.0 0.00 0.00 0.00 100 1016.0
20260904071013 73 314 0.0 0.0 0.00 0.00 0.00 100 1016.0
20260904070226 73 314 0.0 0.0 0.00 0.00 0.00 100 1016.1
20260904065714 73 314 0.0 0.0 0.00 0.00 0.00 100 1016.1
20260904065213 73 314 0.0 0.0 0.00 0.00 0.00 100 1016.2
20260904064714 73 314 0.0 0.0 0.00 0.00 0.00 100 1016.2
20260904064214 73 314 0.0 0.0 0.00 0.00 0.00 100 1016.3
20260904063713 73 314 0.0 0.0 0.00 0.00 0.00 100 1016.4
20260904063211 73 314 0.0 0.0 0.00 0.00 0.00 100 1016.4
20260904062708 74 314 0.0 0.0 0.00 0.00 0.00 100 1016.4
20260904062209 74 314 0.0 0.0 0.00 0.00 0.00 100 1016.5
20260904061709 74 314 0.0 0.0 0.00 0.00 0.00 100 1016.6
20260904061439 74 314 0.0 0.0 0.00 0.00 0.00 100 1016.7
20260904060704 74 314 0.0 0.0 0.00 0.00 0.00 100 1016.6
20260904060204 74 314 0.0 0.0 0.00 0.00 0.00 100 1016.7
20260904055701 74 314 0.0 0.0 0.00 0.00 0.00 100 1016.8
20260904055159 74 314 0.0 0.0 0.00 0.00 0.00 100 1016.9
20260904054930 74 314 0.0 0.0 0.00 0.00 0.00 100 1016.9
20260904054159 74 314 0.0 0.0 0.00 0.00 0.00 100 1017.0
20260904053656 74 314 0.0 0.0 0.00 0.00 0.00 99 1016.9
20260904053157 74 314 0.0 0.0 0.00 0.00 0.00 99 1017.0
20260904052656 74 314 0.0 0.0 0.00 0.00 0.00 100 1017.1
20260904052156 74 314 0.0 0.0 0.00 0.00 0.00 99 1017.1
20260904051654 74 314 0.0 0.0 0.00 0.00 0.00 99 1017.1
20260904051155 75 314 0.0 0.0 0.00 0.00 0.00 99 1017.2
20260904050653 75 314 0.0 0.0 0.00 0.00 0.00 99 1017.2
20260904050155 75 314 0.0 0.0 0.00 0.00 0.00 100 1017.2
20260904045654 75 314 0.0 0.0 0.00 0.00 0.00 100 1017.3
20260904045153 75 314 0.0 0.0 0.00 0.00 0.00 100 1017.3
20260904044927 75 314 0.0 0.0 0.00 0.00 0.00 99 1017.2
20260904044149 75 314 0.0 0.0 0.00 0.00 0.00 100 1017.3
20260904043650 75 314 0.0 0.0 0.00 0.00 0.00 100 1017.2
20260904043151 75 314 0.0 0.0 0.00 0.00 0.00 100 1017.2
20260904042651 75 314 0.0 0.0 0.00 0.00 0.00 100 1017.3
20260904042149 75 314 0.0 0.0 0.00 0.00 0.00 99 1017.2
20260904041921 75 314 0.0 0.0 0.00 0.00 0.00 99 1017.2
20260904041420 75 314 0.0 0.0 0.00 0.00 0.00 99 1017.3
20260904040647 76 314 0.0 0.0 0.00 0.00 0.00 99 1017.3
20260904040146 76 314 0.0 0.0 0.00 0.00 0.00 99 1017.2
20260904035916 76 314 0.0 0.0 0.00 0.00 0.00 99 1017.3
20260904035142 76 314 0.0 0.0 0.00 0.00 0.00 99 1017.3
20260904034646 76 314 0.0 0.0 0.00 0.00 0.00 99 1017.2
20260904034140 76 314 0.0 0.0 0.00 0.00 0.00 99 1017.3
20260904033634 76 314 0.0 0.0 0.00 0.00 0.00 99 1017.3
20260904033128 76 314 0.0 0.0 0.00 0.00 0.00 99 1017.2
20260904032623 77 314 0.0 0.0 0.00 0.00 0.00 99 1017.2
20260904032347 77 314 0.0 0.0 0.00 0.00 0.00 99 1017.3
20260904031610 77 314 0.0 0.0 0.00 0.00 0.00 99 1017.4
20260904031104 77 314 0.0 0.0 0.00 0.00 0.00 99 1017.5
20260904030052 77 314 0.0 0.0 0.00 0.00 0.00 99 1017.5
20260904025545 78 314 0.0 0.0 0.00 0.00 0.00 99 1017.5
20260904025311 78 314 0.0 0.0 0.00 0.00 0.00 99 1017.5
20260904024534 78 314 0.0 0.0 0.00 0.00 0.00 99 1017.6
20260904024028 78 314 0.0 0.0 0.00 0.00 0.00 99 1017.6
20260904023522 78 314 0.0 0.0 0.00 0.00 0.00 99 1017.7
20260904023016 78 314 0.0 0.0 0.00 0.00 0.00 98 1017.7
20260904022510 78 314 0.0 0.0 0.00 0.00 0.00 99 1017.6
20260904022004 78 314 0.0 0.0 0.00 0.00 0.00 98 1017.5
20260904021458 78 314 0.0 0.0 0.00 0.00 0.00 98 1017.6
20260904020952 78 314 0.0 0.0 0.00 0.00 0.00 98 1017.5
20260904020446 78 314 0.0 0.0 0.00 0.00 0.00 98 1017.5
20260904015940 78 314 0.0 0.0 0.00 0.00 0.00 98 1017.5
20260904015434 78 314 0.0 0.0 0.00 0.00 0.00 98 1017.4
20260904014928 79 314 0.0 0.0 0.00 0.00 0.00 97 1017.3
20260904014422 79 314 0.0 0.0 0.00 0.00 0.00 97 1017.4
20260904013916 79 314 0.0 0.0 0.00 0.00 0.00 97 1017.2
20260904013410 79 314 0.0 0.0 0.00 0.00 0.00 97 1017.2
20260904013135 79 314 0.0 0.0 0.00 0.00 0.00 96 1017.1
20260904012358 80 314 0.0 0.0 0.00 0.00 0.00 97 1017.0
20260904011852 80 314 0.0 0.0 0.00 0.00 0.00 97 1016.9
20260904011618 80 314 0.0 0.0 0.00 0.00 0.00 96 1016.8
20260904010839 80 314 0.0 0.0 0.00 0.00 0.00 97 1016.7
20260904010604 80 314 0.0 0.0 0.00 0.00 0.00 96 1016.7
20260904005827 80 314 0.0 0.0 0.00 0.00 0.00 96 1016.6
20260904005321 81 314 0.0 0.0 0.00 0.00 0.00 95 1016.6
20260904004815 81 314 0.0 0.0 0.00 0.00 0.00 96 1016.5
20260904004309 81 314 0.0 0.0 0.00 0.00 0.00 96 1016.3
20260904003804 81 314 0.0 0.0 0.00 0.00 0.00 95 1016.2
20260904003258 81 314 0.0 0.0 0.00 0.00 0.00 94 1016.2
20260904002752 82 314 0.0 0.0 0.00 0.00 0.00 94 1016.1
20260904002246 82 314 0.0 0.0 0.00 0.00 0.00 93 1015.8
20260904001743 82 314 0.0 0.0 0.00 0.00 0.00 93 1015.8
20260904001240 83 314 0.0 0.0 0.00 0.00 0.00 92 1015.7
20260904000740 83 314 0.0 0.0 0.00 0.00 0.00 91 1015.6
20260904000236 83 314 0.0 0.0 0.00 0.00 0.00 90 1015.5
20260903235736 84 314 0.0 0.0 0.00 0.00 0.00 88 1015.4
20260903235237 85 314 0.0 0.0 0.00 0.00 0.00 88 1015.5
20260903234734 85 314 0.0 0.0 0.00 0.00 0.00 88 1015.5
20260903234233 85 314 0.0 0.0 0.00 0.00 0.00 86 1015.5
20260903233733 86 314 0.0 1.0 0.00 0.00 0.00 85 1015.4
20260903233233 86 314 0.0 1.0 0.00 0.00 0.00 84 1015.4
20260903232730 87 288 0.0 0.0 0.00 0.00 0.00 82 1015.3
20260903232232 88 284 0.0 0.0 0.00 0.00 0.00 82 1015.3
20260903231729 89 284 0.0 0.0 0.00 0.00 0.00 80 1015.3
20260903231229 89 284 0.0 0.0 0.00 0.00 0.00 79 1015.3
20260903230726 90 284 0.0 0.0 0.00 0.00 0.00 78 1015.3
20260903230225 91 284 0.0 0.0 0.00 0.00 0.00 77 1015.3
20260903225955 92 284 0.0 0.0 0.00 0.00 0.00 75 1015.4
20260903225221 92 284 0.0 0.0 0.00 0.00 0.00 74 1015.4
20260903224722 93 284 0.0 0.0 0.00 0.00 0.00 75 1015.3
20260903224220 93 284 0.0 0.0 0.00 0.00 0.00 74 1015.3
20260903223721 94 284 0.0 0.0 0.00 0.00 0.00 73 1015.3
20260903223221 94 284 0.0 0.0 0.00 0.00 0.00 71 1015.3
20260903222719 94 284 0.0 0.0 0.00 0.00 0.00 71 1015.3
20260903222221 95 284 0.0 0.0 0.00 0.00 0.00 72 1015.4
20260903221718 95 284 0.0 0.0 0.00 0.00 0.00 71 1015.4
20260903221218 96 284 0.0 0.0 0.00 0.00 0.00 67 1015.3
20260903220717 96 284 0.0 0.0 0.00 0.00 0.00 67 1015.4
20260903220215 96 284 0.0 0.0 0.00 0.00 0.00 69 1015.4
20260903215717 96 284 0.0 0.0 0.00 0.00 0.00 69 1015.4
20260903215447 96 284 0.0 0.0 0.00 0.00 0.00 67 1015.4
20260903214715 96 284 0.0 0.0 0.00 0.00 0.00 69 1015.4
20260903214215 95 284 0.0 0.0 0.00 0.00 0.00 65 1015.4
20260903213711 94 284 0.0 0.0 0.00 0.00 0.00 65 1015.4
20260903212712 95 284 0.0 0.0 0.00 0.00 0.00 64 1015.4
20260903212443 95 284 0.0 0.0 0.00 0.00 0.00 61 1015.5
20260903211711 95 284 0.0 0.0 0.00 0.00 0.00 61 1015.5
20260903211213 96 283 0.0 0.0 0.00 0.00 0.00 61 1015.4
20260903210711 96 283 0.0 0.0 0.00 0.00 0.00 62 1015.5
20260903210212 96 290 0.0 0.0 0.00 0.00 0.00 60 1015.5
20260903205942 96 290 0.0 2.0 0.00 0.00 0.00 60 1015.6
20260903204712 96 292 0.0 0.0 0.00 0.00 0.00 57 1015.7
20260903204212 95 292 0.0 0.0 0.00 0.00 0.00 60 1015.7
20260903203211 95 289 0.0 3.0 0.00 0.00 0.00 61 1015.8
20260903202942 96 287 0.0 3.0 0.00 0.00 0.00 58 1015.8
20260903202212 95 287 0.0 3.0 0.00 0.00 0.00 59 1016.0
20260903201712 95 265 0.0 3.0 0.00 0.00 0.00 59 1016.1
20260903201212 95 223 0.0 2.0 0.00 0.00 0.00 59 1016.0
20260903200944 95 191 1.0 5.0 0.00 0.00 0.00 63 1016.1
20260903200205 95 191 1.0 5.0 0.00 0.00 0.00 60 1016.2
20260903195930 95 279 0.0 3.0 0.00 0.00 0.00 65 1016.2
20260903195154 95 288 0.0 2.0 0.00 0.00 0.00 62 1016.3
20260903194648 95 288 1.0 4.0 0.00 0.00 0.00 65 1016.4
20260903194142 95 282 1.0 4.0 0.00 0.00 0.00 62 1016.4
20260903193635 95 261 0.0 4.0 0.00 0.00 0.00 59 1016.5
20260903193129 95 263 0.0 3.0 0.00 0.00 0.00 62 1016.6
20260903192624 95 263 0.0 4.0 0.00 0.00 0.00 60 1016.6
20260903192118 94 263 0.0 4.0 0.00 0.00 0.00 61 1016.6
20260903191844 94 277 0.0 4.0 0.00 0.00 0.00 60 1016.8
20260903191106 94 277 0.0 4.0 0.00 0.00 0.00 63 1016.8
20260903190600 94 0 0.0 2.0 0.00 0.00 0.00 60 1016.8
20260903190054 93 9 0.0 6.0 0.00 0.00 0.00 62 1016.8
20260903185548 93 17 0.0 6.0 0.00 0.00 0.00 62 1016.9
20260903185042 93 42 0.0 4.0 0.00 0.00 0.00 62 1016.9
20260903184536 93 61 1.0 4.0 0.00 0.00 0.00 60 1017.0
20260903184302 93 338 2.0 5.0 0.00 0.00 0.00 63 1017.1
20260903183756 93 326 1.0 5.0 0.00 0.00 0.00 64 1017.2
20260903183018 93 71 0.0 3.0 0.00 0.00 0.00 63 1017.2
20260903182512 93 90 1.0 3.0 0.00 0.00 0.00 63 1017.2
20260903182006 93 5 2.0 8.0 0.00 0.00 0.00 66 1017.2
20260903181459 93 30 1.0 8.0 0.00 0.00 0.00 65 1017.3
20260903180954 93 336 0.0 4.0 0.00 0.00 0.00 63 1017.3
20260903180447 93 11 0.0 2.0 0.00 0.00 0.00 64 1017.3
20260903180212 93 17 1.0 6.0 0.00 0.00 0.00 66 1017.4
20260903175437 93 24 1.0 6.0 0.00 0.00 0.00 65 1017.4
20260903175201 93 0 0.0 4.0 0.00 0.00 0.00 67 1017.5
20260903174423 92 16 0.0 4.0 0.00 0.00 0.00 65 1017.5